Temp
69 75 75 72 58 53 50 59 70 67 71 79 82 81 77 78 78 66 79 81 78 78 80 80 79 79 79 79 79 78 78 78 78 78 78 78 79 79 79 78 79 80 80 80 80 80 80 80 80
68 77 72 65 53 45 51 65 68 73 77 79 82 82 80 77 81 75 74 79 78 79 79 78 79 79 79 79 78 78 78 78 78 78 78 78 78 79 79 78 79 80 80 80 80 80 80 80 80
71 75 62 58 50 48 51 67 72 74 80 80 80 85 82 75 79 80 79 78 77 77 78 78 79 79 79 79 78 78 78 78 78 78 78 78 78 78 78 78 79 80 80 80 80 80 79 79 79
68 64 61 52 51 58 64 65 74 75 80 81 81 79 86 89 84 81 80 79 75 76 78 79 79 79 79 79 78 78 78 78 78 78 78 78 78 78 78 78 78 79 80 80 80 79 79 79 79
64 57 49 46 54 60 72 73 73 73 76 80 83 76 77 83 83 81 79 79 75 77 79 78 78 79 79 79 79 78 78 78 78 78 78 78 78 78 78 78 78 79 80 80 79 79 78 78 78
55 55 43 49 53 67 72 74 75 76 80 81 78 74 74 84 81 81 82 76 76 77 78 77 78 78 78 79 78 78 78 78 78 78 78 78 78 78 78 78 78 78 79 79 79 78 78 77 77
51 47 44 48 56 62 69 75 74 76 77 78 76 67 70 77 84 83 79 77 76 77 78 77 77 78 78 78 78 77 77 77 77 77 77 77 77 77 78 78 78 78 78 78 78 78 77 77 77
57 51 45 50 55 56 70 73 79 78 77 84 82 64 65 76 81 82 77 75 73 74 77 77 78 77 75 76 78 77 77 77 77 77 77 77 77 77 78 77 77 78 78 78 78 78 77 77 76
62 46 44 51 56 61 71 65 83 83 80 80 82 78 79 82 82 78 74 73 72 73 73 76 76 76 76 75 77 77 78 77 77 77 77 75 72 73 75 76 77 78 78 78 78 77 77 77 77
54 46 50 58 61 55 68 71 79 77 74 71 74 77 79 82 80 77 74 71 72 71 71 71 71 71 72 78 74 72 75 73 72 72 73 71 70 70 76 76 78 78 78 78 78 77 77 77 72
53 51 62 59 65 66 68 72 80 75 66 70 72 75 82 83 80 78 77 76 75 74 75 74 73 72 72 74 70 70 70 70 70 71 71 69 71 69 72 71 73 72 76 73 75 73 73 72 71
51 60 62 61 67 65 67 72 73 79 75 78 78 80 82 82 82 80 78 78 76 76 77 76 75 74 72 72 71 71 71 70 69 70 70 68 68 70 71 72 72 71 71 71 71 70 71 71 73
54 58 62 66 66 67 70 69 68 75 79 80 80 81 81 79 82 83 80 80 78 77 77 77 77 77 75 73 73 72 72 72 72 72 72 71 70 71 72 72 72 72 71 71 71 71 72 72 74
57 59 63 64 62 64 66 68 70 75 80 78 77 76 78 76 77 75 79 78 78 78 78 78 78 77 76 75 75 75 75 74 73 74 75 74 73 73 73 73 73 72 72 73 73 73 72 71 71
59 52 58 62 65 62 64 63 66 75 77 76 74 74 75 72 73 71 73 77 79 80 78 77 77 77 76 76 76 76 76 77 76 75 75 76 75 75 73 73 73 74 75 77 76 73 71 70 71
52 50 43 55 62 65 66 55 69 74 73 75 73 73 73 69 69 72 74 73 75 78 79 79 82 80 78 78 77 78 78 79 79 76 76 78 77 76 75 74 73 74 75 75 72 71 70 70 69
46 39 44 53 61 63 62 56 68 72 73 69 71 72 71 69 70 70 69 71 71 71 73 77 80 80 80 78 79 78 77 78 78 79 78 77 78 78 74 73 73 73 71 71 70 69 68 67 67
39 42 45 48 55 59 58 58 63 68 72 67 68 67 67 69 68 69 69 70 71 71 70 71 79 79 80 80 77 75 76 74 76 76 76 75 75 76 74 73 72 71 69 67 66 66 66 64 61
51 48 47 53 61 57 56 59 62 66 66 63 64 64 63 64 67 69 68 69 67 68 67 66 73 77 78 76 73 73 72 73 74 75 75 74 75 73 71 71 68 66 65 62 63 63 61 60 61
52 48 46 54 62 57 58 58 60 64 65 63 63 61 64 64 66 66 67 67 67 65 66 67 68 73 73 74 73 75 73 73 74 74 72 73 72 71 69 69 66 65 64 62 61 58 57 57 57
50 47 47 49 57 58 56 52 57 62 60 61 60 62 64 64 63 63 65 66 66 65 63 65 64 64 74 77 75 73 74 71 68 69 68 70 70 69 68 67 64 62 60 59 58 57 56 55 56
46 56 56 55 49 41 56 39 51 56 53 57 57 60 60 62 64 64 64 64 66 67 65 65 64 65 71 72 74 74 72 67 65 64 64 65 68 68 67 65 63 61 59 59 59 59 55 55 53
51 60 55 55 47 44 48 42 49 56 50 54 56 58 60 63 63 62 62 64 66 67 65 65 65 69 72 71 76 71 68 65 64 63 63 63 64 66 66 64 62 61 60 59 60 58 56 55 53
62 55 52 50 45 36 45 45 45 52 56 54 58 59 60 60 61 62 64 63 63 65 65 65 65 64 67 71 69 69 66 64 62 61 61 63 61 61 63 64 62 61 61 60 59 58 57 55 53
54 44 34 33 33 33 47 44 47 56 60 60 59 60 60 61 61 62 61 62 62 62 64 66 67 67 68 69 67 67 66 64 62 61 62 61 59 59 61 62 61 60 60 60 59 57 55 54 54
46 43 33 30 28 37 49 40 50 59 63 64 65 63 61 61 62 64 63 65 67 65 66 68 65 67 69 67 66 65 65 62 62 61 63 61 61 60 61 61 61 61 61 60 57 55 55 54 53
47 40 48 39 40 37 41 49 57 62 62 60 59 60 59 61 62 66 67 68 69 68 69 68 66 69 67 65 65 64 64 64 61 62 62 61 61 63 61 61 60 60 59 58 55 53 53 52 50
50 55 40 35 29 29 39 42 46 53 60 60 57 58 60 61 64 66 64 68 71 71 70 69 67 65 65 64 64 64 64 64 65 64 62 60 60 60 60 59 58 58 56 55 52 50 50 49 48
49 43 49 43 38 31 30 38 52 55 58 58 60 62 60 62 65 66 66 67 70 69 67 66 65 65 63 64 64 63 64 64 63 62 60 58 58 58 58 58 57 56 54 51 50 49 49 48 47
55 49 47 35 38 38 40 39 56 58 62 60 62 64 65 64 62 65 64 64 66 65 64 64 64 64 64 65 64 63 63 62 61 59 58 57 56 57 56 56 56 56 52 49 48 48 48 47 46
MSLP
1011.14 1010.84 1010.58 1010.83 1012.04 1011.85 1010.74 1009.03 1007.07 1006.33 1004.88 1003.77 1003.07 1003.71 1004.11 1004.90 1005.37 1006.11 1005.66 1006.49 1007.41 1008.79 1009.33 1009.66 1009.85 1010.23 1010.66 1010.99 1011.25 1011.60 1011.92 1012.10 1012.29 1012.43 1012.56 1012.69 1012.90 1013.23 1013.51 1013.71 1013.78 1013.89 1013.97 1014.10 1014.18 1014.21 1014.17 1014.27 1014.27
1011.19 1010.75 1010.76 1011.14 1011.72 1011.61 1009.81 1008.09 1006.62 1005.71 1004.34 1003.72 1003.41 1003.22 1003.63 1004.33 1005.31 1006.09 1006.34 1007.29 1007.31 1008.35 1009.37 1009.71 1009.89 1010.21 1010.65 1011.11 1011.45 1011.70 1011.98 1012.16 1012.33 1012.53 1012.79 1012.99 1013.05 1013.25 1013.45 1013.69 1013.86 1013.98 1014.07 1014.17 1014.28 1014.36 1014.31 1014.33 1014.41
1011.11 1010.98 1011.47 1011.48 1011.09 1010.22 1008.74 1007.09 1005.98 1004.40 1003.53 1003.79 1003.31 1003.55 1003.57 1004.34 1005.74 1006.73 1006.63 1007.63 1008.00 1008.62 1009.35 1009.72 1010.07 1010.48 1010.65 1011.14 1011.57 1011.76 1011.95 1012.13 1012.23 1012.53 1012.87 1013.05 1013.25 1013.31 1013.54 1013.76 1013.98 1014.05 1014.08 1014.21 1014.31 1014.37 1014.40 1014.44 1014.47
1011.19 1011.58 1011.77 1011.31 1010.25 1008.39 1007.08 1006.27 1005.08 1004.33 1003.91 1003.97 1003.41 1003.56 1003.93 1004.58 1004.85 1006.54 1007.27 1007.89 1008.25 1008.96 1009.46 1009.80 1010.13 1010.65 1011.03 1011.33 1011.59 1011.84 1012.07 1012.30 1012.45 1012.55 1012.92 1013.12 1013.30 1013.42 1013.62 1013.75 1013.81 1013.97 1014.08 1014.22 1014.29 1014.40 1014.50 1014.49 1014.43
1011.31 1012.08 1012.23 1011.33 1009.60 1007.59 1006.18 1005.84 1005.27 1004.60 1004.11 1003.88 1003.57 1004.93 1005.41 1005.83 1005.48 1007.06 1008.06 1008.03 1008.30 1009.01 1009.37 1010.00 1010.07 1010.52 1011.02 1011.33 1011.61 1011.97 1012.14 1012.34 1012.58 1012.72 1012.86 1013.13 1013.34 1013.51 1013.60 1013.73 1013.84 1013.95 1014.13 1014.27 1014.33 1014.41 1014.44 1014.44 1014.36
1011.83 1012.10 1012.34 1010.97 1009.12 1006.82 1005.36 1005.18 1004.81 1004.41 1003.89 1004.27 1003.99 1005.33 1007.31 1007.59 1006.47 1007.84 1008.50 1008.78 1008.76 1008.99 1009.19 1009.88 1010.21 1010.43 1010.91 1011.13 1011.33 1011.76 1012.19 1012.40 1012.60 1012.83 1012.94 1013.16 1013.47 1013.62 1013.75 1013.77 1013.85 1013.98 1014.14 1014.25 1014.27 1014.27 1014.26 1014.24 1014.14
1011.66 1011.99 1011.44 1010.36 1008.97 1006.72 1004.33 1004.42 1004.36 1003.98 1003.92 1003.91 1004.31 1005.61 1007.58 1008.67 1008.36 1008.20 1008.97 1009.37 1009.49 1009.58 1009.56 1009.75 1010.25 1010.34 1010.80 1011.06 1011.24 1011.56 1011.99 1012.38 1012.68 1012.85 1013.08 1013.37 1013.50 1013.66 1013.82 1013.97 1013.91 1014.05 1014.03 1014.10 1014.17 1014.12 1014.14 1014.02 1013.97
1011.06 1011.38 1010.89 1009.64 1008.29 1005.37 1004.70 1004.10 1004.07 1003.83 1003.74 1003.67 1004.41 1005.86 1006.57 1008.09 1008.41 1008.42 1008.93 1009.37 1009.79 1009.67 1009.85 1010.21 1010.46 1010.77 1011.20 1011.39 1011.41 1011.81 1012.07 1012.33 1012.54 1012.82 1013.06 1013.32 1013.67 1013.75 1013.73 1013.97 1013.98 1013.98 1014.01 1013.97 1013.99 1013.96 1013.99 1013.92 1013.74
1010.20 1010.87 1009.67 1008.22 1007.21 1005.03 1004.39 1004.38 1004.05 1003.56 1003.46 1004.03 1003.79 1004.62 1004.69 1004.77 1007.47 1008.61 1008.82 1009.89 1010.23 1010.15 1010.02 1010.27 1010.38 1010.61 1011.09 1011.55 1011.72 1011.97 1012.28 1012.63 1012.89 1013.09 1013.22 1013.47 1013.74 1013.87 1013.85 1013.85 1013.96 1013.93 1013.99 1013.90 1013.78 1013.89 1013.87 1013.66 1013.50
1009.77 1009.31 1007.96 1007.00 1006.67 1005.83 1004.77 1004.71 1004.39 1003.72 1004.29 1005.07 1005.30 1005.52 1006.08 1005.11 1006.06 1006.98 1007.93 1009.24 1009.77 1010.13 1010.03 1010.35 1010.50 1010.76 1011.25 1011.48 1011.89 1012.12 1012.30 1012.64 1013.02 1013.32 1013.45 1013.67 1013.93 1014.10 1014.02 1013.90 1013.87 1013.97 1013.87 1013.97 1013.86 1013.77 1013.65 1013.51 1013.35
1008.43 1007.23 1007.35 1006.82 1006.47 1005.87 1004.92 1004.65 1005.07 1004.03 1004.76 1004.55 1004.85 1005.14 1005.13 1004.59 1005.07 1006.33 1007.14 1007.73 1008.91 1009.12 1009.59 1009.99 1010.32 1010.38 1010.98 1011.37 1011.85 1012.21 1012.44 1012.67 1013.00 1013.18 1013.26 1013.59 1013.69 1013.85 1014.03 1014.19 1014.06 1013.86 1013.80 1013.89 1013.91 1013.80 1013.51 1013.38 1013.39
1008.22 1007.23 1007.35 1006.83 1006.22 1005.58 1004.77 1005.14 1005.32 1004.34 1003.87 1003.86 1004.01 1003.87 1004.04 1003.88 1004.66 1004.59 1005.83 1006.65 1007.76 1008.15 1008.73 1009.73 1010.11 1010.49 1010.80 1011.03 1011.45 1011.82 1012.12 1012.43 1012.87 1013.08 1013.25 1013.55 1013.78 1013.71 1013.65 1013.79 1013.86 1013.80 1013.78 1013.72 1013.70 1013.70 1013.41 1013.27 1012.96
1007.78 1007.49 1006.96 1006.45 1006.01 1005.35 1004.97 1004.35 1005.31 1004.08 1003.73 1003.77 1003.93 1004.19 1004.12 1004.34 1004.19 1005.03 1005.20 1005.78 1007.03 1007.14 1007.97 1008.54 1009.51 1010.01 1010.37 1010.80 1011.27 1011.75 1011.97 1012.24 1012.54 1012.80 1013.00 1013.21 1013.56 1013.68 1013.59 1013.49 1013.68 1013.55 1013.50 1013.47 1013.47 1013.40 1013.13 1013.00 1012.75
1007.45 1007.08 1006.65 1006.01 1005.67 1005.26 1004.63 1004.31 1004.68 1003.04 1003.41 1003.93 1004.18 1004.03 1003.87 1004.15 1004.81 1005.61 1006.37 1006.89 1007.17 1007.27 1007.52 1008.08 1009.19 1010.22 1010.49 1010.97 1011.18 1011.28 1011.30 1011.55 1012.02 1012.17 1012.42 1012.79 1013.10 1013.29 1013.31 1013.51 1013.60 1013.55 1013.31 1013.34 1013.32 1013.41 1013.49 1013.12 1012.82
1007.11 1007.05 1006.42 1005.61 1005.43 1004.84 1004.81 1004.32 1002.84 1002.85 1003.03 1003.81 1004.13 1004.05 1004.29 1005.11 1005.79 1006.81 1007.05 1007.13 1007.14 1007.18 1006.84 1007.91 1008.97 1009.75 1010.19 1010.52 1010.98 1011.14 1011.17 1011.27 1011.69 1012.13 1012.37 1012.58 1012.74 1012.83 1013.11 1013.51 1013.46 1013.53 1013.30 1013.08 1013.19 1013.44 1013.24 1013.32 1012.87
1007.15 1006.69 1006.37 1004.96 1004.74 1004.51 1004.83 1003.41 1001.32 1002.57 1002.69 1003.07 1003.69 1004.68 1005.24 1006.01 1006.20 1007.01 1007.69 1007.64 1007.32 1007.59 1007.60 1007.76 1008.55 1008.97 1009.52 1010.29 1011.03 1010.93 1010.99 1010.95 1011.16 1011.68 1012.17 1012.52 1012.55 1012.63 1012.72 1013.11 1013.46 1013.59 1013.57 1013.51 1013.68 1013.79 1013.73 1013.62 1013.57
1007.21 1006.49 1005.95 1005.33 1004.35 1004.35 1003.87 1002.45 1001.98 1002.57 1002.64 1003.41 1004.35 1004.41 1004.87 1005.58 1005.67 1006.41 1008.14 1009.13 1008.52 1007.66 1009.19 1008.69 1008.52 1008.95 1009.43 1009.58 1010.51 1010.70 1010.87 1010.49 1010.53 1010.76 1011.56 1012.21 1012.53 1012.65 1012.97 1013.31 1013.64 1013.65 1013.91 1013.86 1014.23 1014.27 1014.10 1014.34 1014.19
1006.99 1006.33 1005.53 1005.06 1004.12 1003.91 1003.29 1002.36 1002.85 1002.64 1002.73 1003.32 1004.17 1004.83 1004.79 1004.76 1005.50 1006.51 1007.39 1009.57 1010.54 1008.71 1010.01 1010.57 1009.75 1009.45 1009.61 1009.28 1009.84 1010.09 1010.81 1011.10 1010.58 1010.82 1011.67 1012.63 1012.83 1012.83 1013.07 1013.38 1013.68 1013.95 1014.35 1014.67 1014.52 1014.73 1014.76 1014.78 1014.44
1006.41 1005.81 1005.25 1004.68 1003.80 1003.86 1003.19 1002.88 1003.11 1002.77 1003.07 1003.71 1004.80 1005.21 1005.32 1005.06 1005.79 1006.95 1007.57 1009.69 1008.78 1008.13 1010.25 1010.23 1011.21 1009.04 1009.33 1009.44 1009.84 1010.15 1010.50 1010.72 1011.06 1011.18 1011.80 1012.40 1012.93 1013.10 1013.29 1013.56 1014.10 1014.60 1014.88 1015.35 1015.28 1015.13 1015.38 1015.17 1014.68
1006.07 1005.59 1005.05 1004.40 1003.53 1003.83 1003.25 1002.77 1003.09 1002.98 1003.16 1003.61 1004.77 1005.49 1005.98 1006.27 1006.45 1007.10 1008.06 1010.13 1010.43 1009.80 1009.63 1010.35 1011.76 1008.98 1008.87 1009.03 1009.95 1010.64 1011.05 1010.89 1010.71 1011.44 1012.16 1012.80 1013.13 1013.36 1013.51 1014.13 1014.35 1014.95 1015.29 1015.55 1015.59 1015.56 1015.70 1015.75 1015.40
1005.39 1005.11 1004.95 1004.68 1003.94 1003.86 1003.84 1003.52 1003.33 1003.36 1003.90 1004.55 1005.20 1005.74 1006.17 1006.31 1006.97 1007.34 1007.86 1008.13 1008.96 1009.29 1009.87 1011.55 1008.18 1009.79 1010.12 1008.81 1009.46 1010.32 1011.66 1011.58 1011.58 1012.22 1013.16 1013.51 1013.52 1013.79 1013.76 1014.11 1014.60 1015.11 1015.49 1015.92 1015.92 1015.94 1016.17 1016.34 1015.91
1004.62 1004.58 1004.81 1004.82 1005.25 1004.99 1003.94 1003.95 1003.64 1004.11 1004.78 1005.54 1005.85 1006.01 1006.27 1006.55 1007.03 1007.43 1006.87 1006.76 1007.17 1007.67 1009.34 1009.45 1011.03 1011.52 1010.63 1008.58 1008.97 1010.29 1012.21 1012.20 1012.23 1012.81 1013.29 1014.11 1014.20 1014.13 1013.91 1014.19 1014.81 1015.59 1015.73 1015.75 1015.98 1016.04 1016.21 1016.31 1016.77
1004.43 1004.44 1004.80 1005.15 1005.55 1005.54 1004.75 1004.81 1003.18 1004.01 1005.37 1005.64 1006.12 1006.30 1006.39 1005.81 1006.30 1006.93 1006.94 1006.72 1006.35 1006.37 1006.91 1008.05 1009.00 1009.73 1010.91 1009.31 1009.27 1009.87 1011.66 1012.27 1012.37 1012.90 1014.02 1014.76 1014.70 1014.49 1014.29 1014.62 1015.20 1015.43 1015.45 1015.78 1015.87 1016.10 1016.44 1016.61 1016.76
1004.32 1004.64 1005.13 1005.64 1006.21 1006.26 1005.25 1005.00 1003.57 1003.71 1003.91 1005.09 1005.82 1006.03 1006.47 1006.76 1006.52 1007.19 1007.30 1007.27 1007.17 1007.51 1008.09 1008.43 1008.68 1007.49 1010.13 1010.53 1010.04 1010.43 1011.23 1012.01 1012.24 1013.55 1015.14 1015.02 1014.90 1014.88 1014.96 1015.20 1015.55 1015.35 1015.62 1015.66 1015.75 1016.23 1016.57 1016.76 1016.63
1004.53 1005.45 1006.31 1007.02 1007.24 1006.36 1005.27 1005.01 1003.17 1002.29 1002.57 1002.97 1004.07 1005.17 1005.71 1006.51 1006.79 1006.69 1007.21 1007.59 1007.83 1007.89 1008.01 1007.75 1007.52 1008.93 1009.93 1009.29 1011.04 1010.81 1011.17 1011.49 1012.73 1013.91 1014.96 1014.83 1015.39 1015.46 1015.30 1015.47 1015.80 1015.67 1015.82 1015.80 1015.92 1016.40 1016.63 1016.65 1016.85
1004.81 1005.82 1006.23 1006.96 1007.47 1006.30 1005.59 1004.68 1001.91 1001.58 1001.96 1002.18 1003.08 1003.57 1004.99 1005.64 1005.99 1005.82 1006.33 1006.75 1007.60 1008.01 1007.99 1008.10 1005.53 1008.13 1010.25 1009.79 1011.38 1011.27 1012.10 1012.09 1012.80 1014.09 1014.05 1014.56 1015.47 1015.62 1015.73 1015.96 1015.81 1015.91 1016.02 1015.99 1016.35 1016.43 1016.51 1016.75 1016.86
1004.58 1005.68 1006.16 1006.97 1007.49 1007.01 1005.82 1003.81 1001.85 1001.15 1001.37 1002.03 1002.83 1004.05 1004.82 1005.06 1005.17 1004.96 1005.62 1005.75 1006.39 1006.98 1007.41 1007.54 1007.40 1007.64 1009.24 1010.51 1011.25 1011.74 1012.67 1012.85 1013.30 1013.54 1014.26 1014.79 1015.39 1016.06 1016.16 1016.09 1016.25 1016.65 1016.62 1016.49 1016.55 1016.89 1016.85 1016.98 1017.10
1003.68 1004.79 1006.23 1007.75 1008.48 1007.81 1005.75 1004.21 1002.31 1001.37 1001.08 1001.92 1002.65 1003.17 1004.25 1004.52 1004.27 1004.23 1004.99 1005.32 1005.55 1006.15 1007.17 1007.72 1008.19 1008.46 1009.41 1010.40 1011.59 1012.21 1012.58 1013.16 1013.46 1013.79 1014.90 1015.98 1016.17 1016.11 1016.15 1016.29 1017.01 1017.21 1017.48 1016.97 1016.97 1017.01 1017.52 1017.63 1017.34
1003.51 1004.53 1006.22 1007.45 1008.39 1008.22 1006.67 1003.69 1001.62 1000.95 1000.68 1001.45 1001.91 1002.02 1003.03 1004.11 1003.83 1003.59 1004.23 1005.29 1005.61 1005.67 1006.84 1007.83 1008.29 1008.14 1009.29 1010.45 1010.94 1011.79 1012.75 1013.29 1013.66 1014.71 1015.47 1016.16 1016.29 1016.50 1016.71 1017.35 1017.37 1017.50 1017.63 1017.44 1017.21 1017.42 1017.85 1018.07 1017.65
1003.17 1004.43 1005.88 1007.09 1007.93 1007.80 1006.75 1004.22 1001.44 1000.59 999.84 1000.15 1000.69 1001.03 1001.97 1003.49 1003.85 1003.35 1004.10 1005.30 1006.11 1006.97 1007.78 1008.40 1009.29 1009.76 1010.46 1010.73 1012.23 1013.35 1013.46 1013.85 1014.52 1015.51 1016.00 1016.47 1017.14 1017.21 1017.47 1017.81 1017.88 1017.92 1017.91 1017.86 1017.72 1018.14 1018.36 1018.22 1017.62
Wind_Speed
7 7 2 3 2 4 4 7 4 3 10 5 5 5 4 2 5 4 11 13 23 18 16 16 20 19 18 18 18 17 17 17 16 16 15 15 14 14 14 13 12 11 12 10 9 8 8 7 6
4 5 3 1 4 3 7 7 11 10 10 5 3 2 1 4 4 9 10 17 21 21 16 14 20 20 19 18 18 17 17 17 16 15 15 14 13 13 13 12 11 11 10 9 8 6 6 5 3
3 2 3 4 5 8 6 6 8 7 10 4 3 2 1 6 11 6 15 17 18 16 14 15 20 19 20 19 18 17 17 17 17 16 15 14 12 12 11 11 10 10 9 8 7 6 4 2 1
2 4 3 3 10 9 9 3 3 3 5 7 3 5 4 0 6 8 18 18 17 15 13 17 19 18 18 18 18 17 16 16 16 16 14 13 12 11 10 10 9 8 8 7 6 4 2 2 2
2 3 2 4 10 7 8 8 5 6 3 5 7 4 5 7 22 20 15 16 18 17 17 14 19 19 19 18 17 16 16 16 15 15 14 13 12 10 10 9 8 8 7 6 5 3 3 4 5
1 3 2 12 7 14 13 9 6 8 9 9 9 8 8 8 18 16 13 12 14 17 17 14 18 20 19 19 18 17 15 15 15 15 14 13 11 9 9 8 7 7 6 5 5 5 5 6 7
6 4 6 5 14 17 13 6 8 9 7 5 7 8 5 4 7 14 12 11 11 13 15 13 12 16 19 18 17 16 15 15 14 14 12 11 11 9 8 7 7 7 7 6 6 6 8 8 9
5 4 5 7 10 17 4 4 4 6 3 10 12 5 10 8 4 12 12 11 9 11 14 14 12 9 8 9 15 15 15 15 15 13 12 11 10 9 9 9 8 9 8 8 8 8 8 9 10
5 3 9 13 14 11 7 1 3 7 10 5 4 12 16 28 14 12 14 8 8 8 10 13 14 13 12 7 10 13 15 13 12 11 10 8 4 5 7 8 10 10 9 9 9 9 9 10 10
6 7 10 3 6 3 9 1 4 2 4 4 2 19 14 21 22 22 18 14 15 11 9 8 9 8 8 8 6 5 7 4 4 5 5 4 4 4 6 8 11 11 10 10 9 9 11 10 4
7 11 17 2 7 8 11 7 3 1 2 9 16 20 20 24 22 22 20 20 16 15 10 10 11 10 9 7 5 3 3 4 4 6 6 5 4 4 4 3 3 4 7 3 4 5 4 6 4
6 7 7 4 9 7 13 4 3 9 8 12 24 23 21 23 23 27 23 22 21 19 17 13 11 11 8 7 7 6 5 5 4 5 6 4 3 4 4 4 4 4 3 5 4 4 4 6 7
11 6 4 8 11 14 12 17 4 16 7 15 19 18 21 11 12 10 15 19 17 21 19 18 15 13 9 10 7 6 6 6 6 5 6 5 4 4 4 4 4 4 3 4 4 5 5 5 5
2 7 16 10 9 8 14 11 5 15 2 17 19 21 20 16 5 6 10 15 16 17 17 16 14 10 9 8 9 8 7 7 5 5 6 7 4 4 4 3 3 3 3 4 3 2 1 1 3
10 6 6 11 16 10 2 11 20 12 4 16 22 23 16 5 9 8 5 14 16 15 18 17 14 12 11 10 9 6 6 6 6 4 5 6 5 5 3 1 2 4 4 5 5 3 3 4 4
4 3 2 5 9 8 9 16 20 8 3 17 20 14 11 5 6 7 9 3 5 7 14 15 14 16 13 9 7 6 6 7 7 5 5 6 6 5 4 2 3 3 3 5 4 3 4 4 4
4 4 5 4 6 5 11 10 11 7 6 10 16 18 16 9 7 7 10 15 6 12 5 11 14 15 14 10 8 7 6 7 7 8 6 4 4 4 5 4 4 4 5 6 4 4 3 4 5
4 4 3 5 2 6 11 17 5 4 6 12 13 9 9 13 9 10 7 6 13 7 12 18 6 10 11 9 6 4 4 4 3 6 6 6 4 7 6 5 6 5 6 5 4 5 4 3 4
6 2 2 3 6 4 9 12 8 7 6 10 9 9 5 5 5 17 14 7 8 9 6 20 19 10 8 4 4 3 4 4 6 7 7 7 6 6 6 7 7 6 7 5 5 3 4 5 6
10 6 4 4 9 5 11 14 3 5 6 8 15 12 14 8 6 6 18 13 9 9 3 3 14 4 6 5 3 2 4 5 7 6 6 7 8 7 8 7 6 6 6 6 6 6 3 3 5
11 7 3 5 7 3 5 7 5 1 5 6 9 12 13 17 13 9 13 14 11 12 8 6 15 16 14 10 7 6 6 5 5 5 5 4 8 7 9 8 7 6 5 4 4 4 6 4 3
12 6 6 5 4 4 7 5 4 4 4 4 8 14 12 13 11 7 6 7 9 10 12 6 7 4 20 9 9 14 6 5 3 3 4 4 6 8 9 8 7 6 4 6 4 4 3 3 3
3 5 4 4 4 3 4 3 9 9 3 9 8 10 15 15 13 11 9 10 10 6 11 3 7 4 20 8 10 10 8 6 5 5 8 4 4 6 7 7 6 6 4 4 5 5 5 2 1
1 2 1 1 4 2 7 5 6 7 10 5 9 11 13 11 10 12 10 4 4 7 9 6 4 10 5 9 6 14 16 11 9 7 4 4 3 4 6 6 5 6 4 3 3 3 2 1 2
4 5 1 1 1 7 6 2 9 5 10 16 20 17 15 14 14 16 15 13 11 13 10 2 7 16 16 7 7 12 14 14 11 9 7 7 3 2 5 5 4 3 3 3 2 2 3 2 2
5 7 6 6 5 5 5 6 11 6 4 10 16 20 17 19 17 18 19 17 17 15 14 17 23 17 20 10 11 11 9 7 7 5 6 5 4 4 3 4 5 5 4 4 4 3 3 4 4
5 5 5 6 2 3 4 7 8 7 3 7 9 10 18 21 19 19 17 13 13 19 18 19 16 18 13 15 10 9 6 8 7 8 7 5 6 4 5 6 6 6 6 6 6 4 5 5 4
3 7 6 5 2 3 5 4 9 6 12 8 10 14 10 8 13 13 8 11 13 11 10 10 11 15 15 14 11 10 11 10 10 11 10 7 5 6 7 7 7 7 6 6 6 5 6 5 4
3 5 5 5 4 1 3 8 7 11 10 13 18 19 13 14 16 12 8 6 9 10 14 12 11 16 14 12 12 12 11 11 11 10 8 7 7 7 8 6 6 6 6 6 7 6 5 5 5
5 9 8 5 4 5 2 9 4 8 15 10 20 20 20 15 7 7 7 9 9 14 14 15 14 14 14 14 13 11 12 12 12 10 9 8 7 7 7 6 6 5 6 6 7 5 4 5 6
Wind_Direction
325 314 287 30 64 69 240 243 237 262 323 157 169 113 165 105 225 220 131 129 131 144 153 148 141 137 136 131 129 126 126 124 122 119 117 115 114 115 114 114 116 118 117 115 111 108 103 94 87
338 307 42 110 134 158 248 209 262 227 230 18 305 113 147 123 72 126 108 141 136 142 150 146 142 140 137 136 132 133 134 133 132 129 123 122 123 123 124 124 125 123 122 122 119 118 115 108 85
304 241 102 167 188 197 220 185 225 266 225 333 124 42 44 117 113 147 125 131 129 136 145 149 142 143 140 138 139 142 142 142 141 135 132 133 130 130 131 128 125 130 135 136 134 136 134 125 43
353 19 340 158 233 241 204 154 274 344 353 278 326 22 39 38 97 125 133 135 124 135 144 144 143 141 140 141 146 147 146 145 144 143 141 138 138 137 133 133 139 147 153 153 151 153 183 238 270
37 73 229 215 245 244 237 223 219 251 192 189 139 35 46 19 109 124 139 136 130 138 144 143 143 142 146 150 152 151 149 150 152 149 148 145 144 143 143 145 150 159 161 162 165 182 224 258 275
22 119 150 224 239 251 250 217 207 224 243 183 98 88 39 99 117 136 132 131 131 140 145 146 146 147 154 158 156 155 155 156 156 155 154 148 149 153 152 156 167 174 173 179 192 208 234 255 265
151 111 203 204 231 259 241 198 213 219 198 220 142 102 130 313 128 132 118 124 128 138 144 146 153 156 161 160 159 157 156 159 159 161 155 153 158 161 165 176 184 195 192 201 215 224 245 254 266
150 114 217 217 224 256 245 245 58 274 230 111 140 173 143 185 242 128 122 126 133 141 147 150 155 152 156 162 158 158 160 162 165 163 159 162 168 175 179 195 208 211 210 214 228 234 246 261 270
155 179 218 215 205 224 309 305 54 10 119 349 160 154 163 153 170 147 127 126 140 149 152 159 160 163 163 156 166 163 166 165 164 165 163 167 170 197 208 211 223 227 226 228 234 247 256 262 269
173 201 225 172 246 274 278 11 306 65 107 26 34 128 184 153 156 157 155 162 169 165 163 165 157 146 149 162 157 152 164 153 152 156 172 175 194 222 226 232 234 241 236 242 247 255 263 269 262
204 226 233 180 242 260 277 302 339 239 200 193 180 173 177 160 157 165 168 164 176 164 165 174 170 161 163 154 149 155 150 149 164 178 183 187 197 220 239 265 261 234 248 242 257 265 257 263 274
259 241 242 328 292 283 262 40 346 284 259 200 173 181 171 168 178 170 172 168 169 167 170 174 174 168 172 158 168 169 163 167 176 198 198 178 219 222 229 228 246 234 223 242 241 256 273 266 249
245 265 260 215 243 264 277 269 244 275 260 179 177 176 181 208 189 166 178 164 169 168 169 173 176 178 167 166 169 173 175 177 189 191 202 183 203 224 251 218 228 230 222 239 250 244 252 284 296
116 232 247 248 253 251 262 285 181 258 111 185 179 190 185 207 175 23 162 169 175 172 171 168 172 176 166 178 180 182 176 176 178 190 199 197 204 212 216 180 208 226 211 258 260 355 321 330 298
257 241 259 239 242 248 286 283 243 248 227 182 195 198 204 109 46 42 335 179 179 185 166 169 170 171 178 184 187 182 176 173 181 197 203 199 191 192 150 173 354 357 12 47 76 50 27 7 332
288 142 229 252 197 246 152 257 261 200 207 184 183 183 173 140 103 71 15 36 90 172 176 164 170 178 178 179 184 189 185 186 183 166 179 206 199 185 158 110 54 55 54 57 55 47 27 14 1
254 217 198 304 183 214 180 250 272 211 219 162 180 179 174 161 100 67 22 343 350 76 12 195 169 171 169 154 168 171 186 172 180 170 172 179 185 171 96 89 73 73 57 55 48 32 55 24 340
211 190 184 184 165 194 259 249 344 265 218 159 179 163 160 158 147 104 49 357 278 57 23 356 221 161 159 153 148 133 127 74 117 110 95 101 87 98 101 85 75 69 71 38 35 51 18 43 327
311 255 209 219 252 182 249 265 244 271 247 152 163 156 142 82 350 127 130 160 288 37 72 17 285 173 170 150 105 122 147 114 82 92 107 97 92 88 90 91 83 71 74 66 41 14 27 12 350
250 273 288 287 246 165 259 269 200 258 251 168 151 145 160 146 154 138 148 167 175 120 138 54 309 246 149 121 120 145 117 88 114 101 78 105 102 100 95 99 89 84 84 60 48 41 15 4 15
233 233 237 215 344 240 265 276 200 200 83 82 105 143 148 158 156 165 175 172 166 147 143 134 330 349 284 171 126 73 92 101 88 88 113 91 100 99 102 95 90 81 92 83 68 50 49 12 348
228 207 243 269 26 231 165 266 231 171 98 103 133 148 155 159 153 188 190 195 188 192 149 153 152 346 281 148 125 141 163 156 95 133 101 83 93 103 97 97 96 97 100 78 68 53 55 70 13
273 188 224 245 216 326 289 104 251 123 125 173 172 170 168 178 172 171 194 198 221 183 186 144 156 110 205 255 167 146 141 151 135 100 101 124 109 99 98 95 108 104 91 87 76 49 41 41 291
164 9 56 67 131 215 235 147 265 177 181 168 181 183 179 190 169 168 182 130 178 169 157 152 130 82 284 232 177 157 147 142 118 120 149 144 111 92 96 101 90 82 89 85 74 62 23 2 353
94 82 15 68 99 216 157 118 238 257 165 174 188 189 185 188 184 172 165 174 157 169 182 150 113 159 244 269 162 140 149 138 141 147 164 125 99 98 106 96 100 82 60 60 60 19 351 6 329
164 156 156 168 179 249 135 210 248 219 101 171 187 181 176 186 195 180 174 195 171 182 177 186 136 162 188 182 161 143 145 139 121 162 132 107 122 98 91 88 74 63 48 43 33 40 13 357 357
140 141 172 100 264 63 221 266 317 246 243 130 166 157 183 184 195 177 185 192 175 178 193 177 172 166 147 134 128 102 106 112 133 113 100 104 91 108 86 75 61 34 34 45 41 28 16 21 8
155 163 65 22 117 243 263 246 239 224 231 163 180 194 197 205 178 180 169 185 190 162 170 140 120 114 123 116 119 122 116 111 104 100 96 94 89 77 72 60 53 45 42 40 41 35 29 36 359
111 76 41 99 133 257 322 262 217 219 226 166 195 193 171 184 196 189 185 181 183 132 124 124 115 109 96 105 103 104 109 103 94 91 90 79 70 59 56 56 57 45 35 38 54 55 34 13 334
145 150 160 131 203 208 177 274 323 279 216 168 182 182 178 176 194 153 144 115 118 111 117 118 120 112 109 107 109 104 100 95 90 91 84 77 73 59 63 50 43 35 69 56 60 39 10 355 339